Dewpoint
36 30 26 25 28 25 21 18 18 21 29 32 29 27 27 30 29 29 28 23 22 20 22 23 22 22 21 21 22 22 25 25 27 32 31 32 33 32 34 34 34 34 35 35
30 25 29 28 28 27 23 21 21 28 27 28 26 25 28 29 29 30 28 24 22 21 20 21 23 22 23 24 24 25 25 27 28 32 32 31 30 33 34 38 36 36 35 35
24 28 26 24 29 24 25 25 24 22 28 28 28 28 29 29 29 28 27 27 23 21 19 19 20 23 27 26 26 27 27 27 28 30 32 33 32 35 35 36 37 36 35 35
27 28 25 30 24 24 26 28 26 25 27 24 28 20 24 27 27 26 26 26 24 22 23 23 22 23 32 25 28 27 28 27 29 28 31 30 31 31 32 33 34 33 32 32
30 30 31 27 26 27 28 32 29 30 27 24 21 21 23 27 26 24 24 24 25 24 23 23 22 21 22 25 28 32 31 31 28 28 30 33 31 32 32 31 30 29 31 32
28 31 29 27 28 28 29 27 29 29 26 21 17 21 23 24 23 24 23 23 24 23 21 20 20 24 24 28 31 33 31 29 29 30 28 28 29 29 29 29 29 30 32 34
25 25 25 26 27 31 30 28 23 24 25 22 20 21 18 20 18 20 22 22 22 22 20 21 21 24 26 29 30 32 30 30 28 26 26 25 27 29 27 27 28 28 29 31
20 23 25 25 27 25 28 26 21 15 15 14 22 19 17 19 20 19 21 22 21 21 21 23 24 26 27 29 29 30 28 27 27 25 24 23 23 28 28 28 29 28 29 30
16 20 21 20 21 24 25 21 26 15 10 11 14 19 18 17 17 17 17 19 22 21 23 24 25 26 26 27 27 26 25 26 25 21 20 20 23 25 28 28 28 31 30 31
19 13 18 18 22 23 24 23 20 19 13 12 11 14 18 17 16 17 16 19 23 24 23 24 24 24 25 25 25 24 24 23 19 19 21 23 25 26 27 28 28 29 29 30
18 15 16 19 18 21 21 16 17 18 16 11 12 14 11 15 16 17 16 18 21 24 25 24 23 23 25 25 24 24 22 18 19 22 24 25 26 27 28 28 29 29 30 29
19 20 13 16 15 17 20 17 16 18 18 22 21 20 12 13 15 15 15 18 20 23 24 25 24 24 24 23 24 23 20 18 20 23 24 26 28 28 28 29 29 29 30 31
24 18 16 17 21 20 14 14 15 14 22 23 18 15 13 13 15 16 18 19 20 21 21 24 24 22 23 24 23 20 17 19 22 25 26 27 28 29 29 30 31 31 32 31
28 22 18 19 18 22 17 18 16 15 22 16 17 15 16 17 20 18 18 18 19 21 21 23 25 24 24 24 21 17 19 21 24 26 27 29 30 30 30 31 31 31 31 31
26 20 19 18 18 16 14 14 14 11 14 14 14 14 14 17 16 16 17 19 20 20 22 23 25 25 24 21 18 19 22 24 25 26 28 29 30 30 30 31 31 31 33 32
26 22 22 19 17 17 15 16 16 16 15 14 14 16 20 20 19 18 18 22 22 22 22 24 25 25 22 19 20 22 23 24 26 26 27 29 30 30 30 31 31 31 31 32
25 25 24 23 20 20 19 20 20 20 19 18 16 21 23 22 22 22 24 24 22 22 24 25 25 23 21 22 23 23 24 26 27 27 28 29 29 29 30 31 32 33 33 34
25 23 24 27 23 21 23 22 21 22 21 22 22 23 25 24 25 23 24 24 23 25 25 26 24 23 24 24 25 25 27 27 27 27 28 29 30 30 31 33 32 33 35 37
24 24 27 26 26 24 20 21 20 19 19 25 25 25 24 25 26 25 25 25 25 26 26 25 24 24 24 24 25 26 27 27 27 27 27 29 31 31 32 32 34 36 37 38
25 25 24 25 22 21 25 22 24 25 22 28 27 27 26 27 25 27 27 26 27 27 27 26 25 24 24 24 26 26 26 27 27 28 29 31 31 32 34 34 35 36 37 38
23 25 24 25 27 27 27 24 27 20 26 29 28 29 29 27 28 28 29 27 29 29 28 26 25 24 24 25 25 26 26 27 28 29 31 31 33 34 34 35 36 36 37 38
27 29 28 26 26 23 27 25 22 27 30 29 30 30 30 30 30 30 30 30 30 29 27 25 25 25 25 24 24 26 27 28 30 31 32 32 33 34 34 35 36 38 39 38
25 24 28 29 31 31 28 27 31 32 30 30 29 30 31 30 29 30 30 29 29 27 25 25 25 25 24 24 26 27 28 29 30 31 32 33 33 35 35 36 38 38 38 38
25 26 29 27 27 25 25 26 26 28 28 29 30 30 30 29 30 29 30 29 28 26 25 25 25 24 23 25 27 28 29 30 32 32 33 33 34 35 37 38 38 38 37 37
26 26 23 22 24 26 26 26 27 28 29 30 30 30 30 30 30 30 29 29 28 26 26 26 25 24 25 26 27 28 29 31 32 33 33 33 35 37 37 38 38 38 40 42
28 25 24 24 24 24 25 27 28 28 29 29 29 29 30 30 31 30 30 29 27 26 27 26 26 27 27 26 26 28 30 33 34 33 32 36 37 37 37 37 37 41 43 44
Lifted_Index
5 5 5 6 6 6 5 5 5 6 7 7 7 7 8 8 8 9 10 11 12 13 14 14 15 15 16 16 16 16 16 16 17 17 17 17 17 16 16 16 16 15 15 15
5 5 6 6 6 5 5 5 5 6 7 7 6 6 7 8 8 9 10 11 12 13 14 14 15 15 15 15 16 16 16 16 16 16 17 17 16 16 16 16 15 15 14 14
5 5 6 6 5 5 5 5 5 5 6 6 5 4 5 6 7 8 10 11 12 13 13 14 14 14 15 15 15 15 16 16 16 16 16 17 17 16 16 15 15 14 14 14
5 5 5 5 5 5 5 5 6 5 5 5 4 3 4 5 6 7 9 10 11 12 13 13 14 14 14 15 15 15 15 16 16 16 16 17 17 16 16 16 15 15 14 14
5 5 5 5 6 6 6 6 6 6 5 4 3 3 4 5 5 6 8 9 11 12 12 13 14 14 14 15 15 15 15 15 15 16 16 16 16 16 16 16 15 15 14 14
6 6 6 6 6 6 6 6 5 4 3 3 3 4 4 5 5 6 7 9 10 11 12 13 13 14 14 15 15 15 15 15 15 15 16 16 16 16 16 15 15 15 14 14
5 5 6 6 6 6 6 5 3 2 2 2 3 4 4 5 6 7 8 9 10 11 12 12 13 13 14 14 14 14 15 15 15 15 15 15 16 16 15 15 15 15 15 14
4 4 6 6 6 6 5 4 3 2 1 2 3 3 4 5 6 7 8 9 10 11 12 12 13 13 13 13 14 14 14 14 14 15 15 15 15 15 15 15 15 14 14 14
4 4 6 6 7 6 5 5 4 3 2 2 2 3 4 5 6 7 8 9 10 11 12 12 12 12 13 13 13 13 14 14 14 15 15 15 15 15 15 14 14 13 13 12
5 5 6 6 7 6 6 5 4 4 2 1 2 2 4 5 6 6 8 9 11 11 11 11 11 12 12 12 12 13 13 13 14 14 15 15 14 14 14 13 13 13 12 12
6 5 5 6 6 6 5 5 4 4 3 2 2 3 4 5 6 7 8 9 10 10 10 10 10 11 11 11 12 12 13 13 14 14 14 14 14 13 13 13 12 12 11 11
6 5 4 4 5 6 5 5 5 4 4 3 3 3 5 5 6 7 8 9 9 9 9 9 10 10 10 11 11 12 12 13 14 14 14 13 13 13 12 12 11 11 11 11
6 5 4 4 5 6 5 5 5 5 4 4 3 4 5 5 6 7 8 9 9 8 8 9 9 9 10 10 11 11 12 13 13 13 13 13 12 12 12 11 11 11 11 11
7 5 4 4 5 5 5 5 5 5 4 4 4 4 5 5 6 7 7 7 8 8 8 8 9 9 9 10 11 12 13 13 13 13 13 12 12 12 12 12 12 11 11 11
6 5 5 5 5 5 5 5 5 5 4 4 4 5 5 6 6 6 6 7 7 7 7 8 9 9 9 10 11 12 13 13 13 12 12 12 12 12 12 12 12 11 11 10
6 5 5 5 5 5 5 5 5 4 4 4 5 5 5 6 6 6 6 7 7 6 7 8 8 9 10 11 12 13 13 12 12 12 12 12 12 12 12 12 12 11 10 10
5 5 5 4 4 4 4 5 5 5 5 5 5 6 6 6 6 6 6 6 6 6 7 7 8 9 10 12 12 12 12 12 12 12 12 12 12 13 12 12 11 10 10 10
5 5 5 4 4 4 4 5 5 5 5 6 6 6 6 6 6 6 6 6 6 6 7 8 9 10 11 12 12 12 12 12 12 12 12 12 13 12 12 11 11 10 10 10
5 6 5 4 3 3 4 5 5 5 5 6 6 5 6 6 6 6 6 6 7 7 8 8 10 11 11 11 11 11 11 12 12 12 12 12 12 12 12 11 11 10 10 10
6 5 5 4 3 3 4 5 5 5 5 6 6 5 5 6 6 6 6 7 7 7 8 9 10 11 11 11 11 11 11 12 12 12 12 12 12 12 11 11 11 10 10 9
5 4 4 3 3 3 4 5 5 5 5 6 6 6 6 6 6 6 6 7 7 8 8 9 9 10 10 10 11 11 11 12 12 12 12 12 12 11 11 11 10 10 9 9
4 4 3 3 3 3 4 5 5 6 6 6 6 6 6 6 6 7 7 7 8 8 8 8 9 9 10 10 10 11 11 12 12 12 12 12 11 11 11 11 10 9 8 8
4 4 4 4 4 4 5 5 6 6 6 6 6 6 6 7 7 7 7 7 8 8 7 8 9 9 10 10 11 11 12 12 12 12 12 11 11 11 11 10 9 8 7 8
4 4 5 5 5 5 5 6 6 6 6 6 6 6 6 7 7 7 7 7 7 6 7 8 9 9 10 11 11 12 12 12 12 12 11 11 10 11 10 9 8 7 7 7
4 5 5 6 6 6 6 6 6 6 6 6 6 6 6 7 7 7 6 6 6 6 7 8 9 9 10 11 12 12 12 12 12 11 10 10 10 10 9 8 7 7 7 7
5 5 5 6 6 6 6 6 7 6 6 6 6 6 6 7 6 6 5 5 5 6 7 8 9 9 10 11 12 12 12 12 11 11 10 10 10 10 9 8 7 6 6 7